Location: Unspecified
(17.6330°N, 0.0000°E)
Time: 00:45:50
(UTC+00:00)

S-56A Canister/Altair - Pass Details

Date: 30 June 2019
Orbit: 633 x 2499 km, 38.9° (Epoch: 18 August)

Event Time Altitude Azimuth Distance (km) Brightness Sun altitude
Rises 17:27:39 0° 312° (NW) 4,768 12.9 14.9°
Reaches altitude 10° 17:32:24 10° 328° (NNW) 3,386 11.8 13.8°
Maximum altitude 17:37:52 19° 11° (N) 2,313 10.2 12.6°
Drops below altitude 10° 17:42:09 10° 56° (NE) 2,571 9.9 11.6°
Sets 17:45:07 0° 75° (ENE) 3,291 10.3 11.0°
